Home > Weather > Ocala > Past weeks

Flag for USA Weather for the Past 2 Weeks in Ocala, Florida, USA

Now
75 °F

Sunny.


Feels Like: 77 °F
Forecast: 69 / 90 °F
Wind: 7 mph from South

Location: Ocala Municipal

Current Time: Apr 30, 2016 at 9:43:36 AM

Latest Report: Apr 30, 2016 at 8:50 AM


Visibility: 10 mi

Pressure: 29.99 "Hg

Humidity: 74%

Dew Point: 66 °F

Location of OcalaLocation

Historic Weather in Ocala — Graph

°F

Ocala Temperature Yesterday

Maximum temperature yesterday: 91 °F (at 4:50 PM)
Minimum temperature yesterday: 64 °F (at 3:15 AM)
Average temperature yesterday: 74 °F

High & Low Weather Summary for the Past Weeks

 TemperatureHumidityPressure
High91 °F (Apr 29, 4:50 PM)94% (Apr 20, 5:35 AM)30.29 "Hg (Apr 20, 5:35 AM)
Low50 °F (Apr 19, 4:55 AM)30% (Apr 18, 3:50 PM)29.87 "Hg (Apr 27, 4:50 PM)
Average69 °F69%30.05 "Hg
* Reported Apr 15 7:50 AM — Apr 30 7:50 AM, Ocala, Weather by CustomWeather, © 2016

Note: Actual official high and low records may vary slightly from our data, if they occured in-between our weather recording intervals... More about our weather records

Advertising

Ocala Weather History for the Previous 24 Hours

Scroll right to see more
 ConditionsComfort  
Time TempWeatherWind HumidityBarometerVisibility
7:50 AM
Sat, Apr 30
72 °FSunny.No wind83%29.98 "Hg10 mi
6:50 AM70 °FClear.No wind83%29.96 "Hg10 mi
6:35 AM68 °FClear.3 mph88%29.96 "Hg10 mi
6:15 AM68 °FClear.No wind88%29.95 "Hg10 mi
5:55 AM68 °FClear.No wind88%29.94 "Hg10 mi
5:15 AM70 °FClear.No wind83%29.93 "Hg10 mi
4:35 AM70 °FClear.No wind83%29.93 "Hg10 mi
4:15 AM68 °FClear.No wind88%29.94 "Hg10 mi
3:55 AM68 °FClear.No wind88%29.93 "Hg10 mi
3:35 AM68 °FClear.No wind88%29.94 "Hg10 mi
3:15 AM68 °FClear.No wind88%29.94 "Hg10 mi
2:55 AM68 °FClear.No wind88%29.95 "Hg10 mi
2:35 AM68 °FClear.No wind83%29.95 "Hg10 mi
1:55 AM68 °FClear.No wind83%29.96 "Hg10 mi
1:35 AM70 °FClear.No wind78%29.96 "Hg10 mi
1:15 AM70 °FClear.No wind78%29.97 "Hg10 mi
12:55 AM70 °FClear.No wind78%29.97 "Hg10 mi
12:35 AM70 °FClear.No wind83%29.97 "Hg10 mi
11:55 PM
Fri, Apr 29
72 °FClear.No wind78%29.98 "Hg10 mi
11:15 PM72 °FClear.No wind73%29.98 "Hg10 mi
10:35 PM75 °FClear.3 mph69%29.99 "Hg10 mi
10:15 PM75 °FPassing clouds.3 mph69%29.99 "Hg10 mi
9:55 PM77 °FPassing clouds.No wind65%29.98 "Hg10 mi
9:35 PM75 °FPassing clouds.No wind65%29.98 "Hg10 mi
8:55 PM79 °FSunny.3 mph58%29.95 "Hg10 mi
8:35 PM81 °FSunny.3 mph54%29.94 "Hg10 mi
7:55 PM82 °FPassing clouds.7 mph51%29.94 "Hg10 mi
6:50 PM88 °FSunny.7 mph46%29.92 "Hg10 mi
5:50 PM90 °FScattered clouds.7 mph43%29.91 "Hg10 mi
4:50 PM91 °FScattered clouds.6 mph38%29.92 "Hg10 mi
3:50 PM90 °FScattered clouds.6 mph41%29.94 "Hg10 mi
2:50 PM90 °FScattered clouds.6 mph41%29.95 "Hg10 mi
1:50 PM88 °FScattered clouds.6 mph49%29.96 "Hg10 mi
12:50 PM84 °FScattered clouds.6 mph55%29.99 "Hg10 mi
11:50 AM81 °FScattered clouds.5 mph66%30.02 "Hg10 mi
10:50 AM75 °FOvercast.3 mph78%30.04 "Hg10 mi
9:50 AM72 °FFog.6 mph88%30.04 "Hg1 mi
Weather by CustomWeather, © 2016

See weather overviewHow to use our weather pages